Overview Statistics Trail Chart Weather Telemetry Raw packets
 

This is the latest recevied weather packets stored in our database for station/object DC1MPP-9. If no packets are shown the sender has not sent any weather packets the latest 10 day(s).

<< 78 79 80 81 82 83 84 >>
Time Temp. Humidity Pressure Rain* Wind** Luminosity Snow
1788003525 26.67° C 51% 960 hPa - - - -
1788003284 26.67° C 48% 960 hPa - - - -
1788003043 26.67° C 55% 960 hPa - - - -
1788002802 25.56° C 52% 960 hPa - - - -
1788002320 26.67° C 51% 960 hPa - - - -
1788002079 26.67° C 50% 960 hPa - - - -
1788001838 26.67° C 57% 960 hPa - - - -
1788001596 25.56° C 58% 960 hPa - - - -
1788001355 25° C 54% 960 hPa - - - -
1788001114 25.56° C 62% 961 hPa - - - -
1788000873 25.56° C 52% 961 hPa - - - -
1788000632 25.56° C 57% 961 hPa - - - -
1788000150 25° C 62% 961 hPa - - - -
1787999909 24.44° C 62% 961 hPa - - - -
1787999668 25.56° C 62% 961 hPa - - - -
1787999427 25.56° C 62% 961 hPa - - - -
1787999186 25° C 59% 961 hPa - - - -
1787998945 25.56° C 57% 961 hPa - - - -
1787998704 25.56° C 58% 961 hPa - - - -
1787998463 25.56° C 59% 961 hPa - - - -
1787998222 26.11° C 53% 961 hPa - - - -
1787997980 25.56° C 52% 961 hPa - - - -
1787997739 25.56° C 59% 961 hPa - - - -
1787997498 26.11° C 56% 961 hPa - - - -
1787997016 26.11° C 59% 961 hPa - - - -

* Rain since midnight (hover to see other rain measurements)
** Current wind speed in m/s (hover to see current wind gust speed)